Time,TemperatureF,DewpointF,PressureIn,WindDirection,WindDirectionDegrees,WindSpeedMPH,WindSpeedGustMPH,Humidity,HourlyPrecipIn,Conditions,Clouds,dailyrainin,SolarRadiationWatts/m^2,SoftwareType,DateUTC
2013-03-07 00:06:00,39.6,36.0,29.74,North,10,0.0,-999.0,86,-99.99,,,0.00,0,weatherlink.com 1.10,2013-03-06 23:06:00,
2013-03-07 00:21:00,39.5,36.0,29.73,North,10,0.0,-999.0,87,-99.99,,,0.00,0,weatherlink.com 1.10,2013-03-06 23:21:00,
2013-03-07 00:36:00,39.5,36.0,29.73,North,10,0.0,-999.0,87,-99.99,,,0.00,0,weatherlink.com 1.10,2013-03-06 23:36:00,
2013-03-07 00:51:00,39.5,36.0,29.74,North,10,0.0,-999.0,87,-99.99,,,0.00,0,weatherlink.com 1.10,2013-03-06 23:51:00,
2013-03-07 01:06:00,39.5,36.0,29.74,North,10,0.0,-999.0,87,-99.99,,,0.00,0,weatherlink.com 1.10,2013-03-07 00:06:00,
2013-03-07 01:21:00,39.5,36.0,29.73,North,10,0.0,-999.0,88,-99.99,,,0.00,0,weatherlink.com 1.10,2013-03-07 00:21:00,
2013-03-07 01:36:00,39.7,37.0,29.73,North,10,0.0,-999.0,88,-99.99,,,0.00,0,weatherlink.com 1.10,2013-03-07 00:36:00,
2013-03-07 01:51:00,39.3,36.0,29.73,North,10,0.0,-999.0,88,-99.99,,,0.00,0,weatherlink.com 1.10,2013-03-07 00:51:00,
2013-03-07 02:06:00,39.1,36.0,29.72,North,10,0.0,-999.0,89,-99.99,,,0.00,0,weatherlink.com 1.10,2013-03-07 01:06:00,
2013-03-07 02:21:00,38.5,35.0,29.71,North,10,0.0,-999.0,88,-99.99,,,0.00,0,weatherlink.com 1.10,2013-03-07 01:21:00,
2013-03-07 02:36:00,38.1,35.0,29.71,North,10,0.0,-999.0,89,-99.99,,,0.00,0,weatherlink.com 1.10,2013-03-07 01:36:00,
2013-03-07 02:51:00,37.4,35.0,29.71,North,10,0.0,-999.0,89,-99.99,,,0.00,0,weatherlink.com 1.10,2013-03-07 01:51:00,
2013-03-07 03:06:00,37.0,34.0,29.70,North,10,0.0,-999.0,90,-99.99,,,0.00,0,weatherlink.com 1.10,2013-03-07 02:06:00,
2013-03-07 03:21:00,37.0,35.0,29.70,North,10,0.0,-999.0,91,-99.99,,,0.00,0,weatherlink.com 1.10,2013-03-07 02:21:00,
2013-03-07 03:36:00,36.8,35.0,29.70,North,10,0.0,-999.0,91,-99.99,,,0.00,0,weatherlink.com 1.10,2013-03-07 02:36:00,
2013-03-07 03:51:00,36.8,35.0,29.70,North,10,0.0,-999.0,91,-99.99,,,0.00,0,weatherlink.com 1.10,2013-03-07 02:51:00,
2013-03-07 04:07:00,37.0,35.0,29.69,North,10,0.0,-999.0,92,-99.99,,,0.00,0,weatherlink.com 1.10,2013-03-07 03:07:00,
2013-03-07 04:21:00,37.3,35.0,29.69,North,10,0.0,-999.0,92,-99.99,,,0.00,0,weatherlink.com 1.10,2013-03-07 03:21:00,
2013-03-07 04:36:00,37.7,36.0,29.69,North,10,0.0,-999.0,92,-99.99,,,0.00,0,weatherlink.com 1.10,2013-03-07 03:36:00,
2013-03-07 04:51:00,37.7,36.0,29.69,North,10,0.0,-999.0,92,-99.99,,,0.00,0,weatherlink.com 1.10,2013-03-07 03:51:00,
2013-03-07 05:06:00,37.7,35.0,29.70,North,10,0.0,-999.0,91,-99.99,,,0.00,0,weatherlink.com 1.10,2013-03-07 04:06:00,
2013-03-07 05:21:00,37.4,35.0,29.69,North,10,0.0,-999.0,91,-99.99,,,0.00,0,weatherlink.com 1.10,2013-03-07 04:21:00,
2013-03-07 05:36:00,37.2,35.0,29.69,North,10,0.0,-999.0,91,-99.99,,,0.00,0,weatherlink.com 1.10,2013-03-07 04:36:00,
2013-03-07 05:51:00,37.2,35.0,29.68,North,10,0.0,-999.0,92,-99.99,,,0.00,0,weatherlink.com 1.10,2013-03-07 04:51:00,
2013-03-07 06:06:00,37.3,35.0,29.69,North,10,0.0,-999.0,92,-99.99,,,0.00,0,weatherlink.com 1.10,2013-03-07 05:06:00,
2013-03-07 06:21:00,37.6,36.0,29.68,North,10,0.0,-999.0,92,-99.99,,,0.00,0,weatherlink.com 1.10,2013-03-07 05:21:00,
2013-03-07 06:36:00,37.9,36.0,29.68,North,10,0.0,-999.0,92,-99.99,,,0.00,0,weatherlink.com 1.10,2013-03-07 05:36:00,
2013-03-07 06:51:00,37.9,36.0,29.69,North,10,0.0,-999.0,92,-99.99,,,0.00,7,weatherlink.com 1.10,2013-03-07 05:51:00,
2013-03-07 07:06:00,38.1,36.0,29.69,North,10,0.0,-999.0,92,-99.99,,,0.00,18,weatherlink.com 1.10,2013-03-07 06:06:00,
2013-03-07 07:21:00,38.6,37.0,29.69,North,10,0.0,-999.0,92,-99.99,,,0.00,26,weatherlink.com 1.10,2013-03-07 06:21:00,
2013-03-07 07:36:00,38.9,37.0,29.69,North,10,0.0,-999.0,92,-99.99,,,0.00,40,weatherlink.com 1.10,2013-03-07 06:36:00,
2013-03-07 07:51:00,39.4,37.0,29.69,North,10,0.0,-999.0,91,-99.99,,,0.00,58,weatherlink.com 1.10,2013-03-07 06:51:00,
2013-03-07 08:06:00,39.8,37.0,29.70,North,10,0.0,-999.0,90,-99.99,,,0.00,53,weatherlink.com 1.10,2013-03-07 07:06:00,
2013-03-07 08:21:00,40.0,37.0,29.70,North,10,0.0,-999.0,90,-99.99,,,0.00,62,weatherlink.com 1.10,2013-03-07 07:21:00,
2013-03-07 08:36:00,40.3,38.0,29.70,North,10,0.0,-999.0,90,-99.99,,,0.00,63,weatherlink.com 1.10,2013-03-07 07:36:00,
2013-03-07 08:51:00,40.5,38.0,29.71,North,10,0.0,-999.0,89,-99.99,,,0.00,49,weatherlink.com 1.10,2013-03-07 07:51:00,
2013-03-07 09:06:00,40.5,38.0,29.70,North,10,0.0,-999.0,89,-99.99,,,0.00,58,weatherlink.com 1.10,2013-03-07 08:06:00,
2013-03-07 09:21:00,40.6,37.0,29.70,North,10,0.0,-999.0,88,-99.99,,,0.00,76,weatherlink.com 1.10,2013-03-07 08:21:00,
2013-03-07 09:36:00,40.9,38.0,29.70,North,10,0.0,-999.0,88,-99.99,,,0.00,84,weatherlink.com 1.10,2013-03-07 08:36:00,
2013-03-07 09:51:00,41.3,38.0,29.70,North,10,0.0,-999.0,88,-99.99,,,0.00,84,weatherlink.com 1.10,2013-03-07 08:51:00,
2013-03-07 10:06:00,41.6,38.0,29.70,North,10,0.0,-999.0,87,-99.99,,,0.00,97,weatherlink.com 1.10,2013-03-07 09:06:00,
2013-03-07 10:21:00,42.0,38.0,29.70,North,10,0.0,-999.0,87,-99.99,,,0.00,104,weatherlink.com 1.10,2013-03-07 09:21:00,
2013-03-07 10:36:00,42.4,39.0,29.70,North,10,0.0,-999.0,86,-99.99,,,0.00,137,weatherlink.com 1.10,2013-03-07 09:36:00,
2013-03-07 10:51:00,43.1,39.0,29.69,North,10,0.0,-999.0,85,-99.99,,,0.00,223,weatherlink.com 1.10,2013-03-07 09:51:00,
2013-03-07 11:06:00,44.2,40.0,29.69,North,10,0.0,-999.0,84,-99.99,,,0.00,221,weatherlink.com 1.10,2013-03-07 10:06:00,
2013-03-07 11:21:00,45.0,40.0,29.69,North,10,0.0,-999.0,82,-99.99,,,0.00,257,weatherlink.com 1.10,2013-03-07 10:21:00,
2013-03-07 11:36:00,46.0,41.0,29.69,North,10,0.0,-999.0,81,-99.99,,,0.00,265,weatherlink.com 1.10,2013-03-07 10:36:00,
2013-03-07 11:51:00,46.4,41.0,29.69,North,10,0.0,-999.0,80,-99.99,,,0.00,250,weatherlink.com 1.10,2013-03-07 10:51:00,
2013-03-07 12:06:00,46.8,41.0,29.69,NNE,26,0.0,-999.0,80,-99.99,,,0.00,269,weatherlink.com 1.10,2013-03-07 11:06:00,
2013-03-07 12:21:00,46.8,41.0,29.69,NNE,29,0.0,-999.0,80,-99.99,,,0.00,223,weatherlink.com 1.10,2013-03-07 11:21:00,
2013-03-07 12:36:00,46.9,41.0,29.69,NNE,29,0.0,-999.0,80,-99.99,,,0.00,246,weatherlink.com 1.10,2013-03-07 11:36:00,
2013-03-07 12:51:00,47.7,42.0,29.69,NW,307,0.0,-999.0,79,-99.99,,,0.00,216,weatherlink.com 1.10,2013-03-07 11:51:00,
2013-03-07 13:06:00,47.7,42.0,29.69,North,8,0.0,-999.0,79,-99.99,,,0.00,200,weatherlink.com 1.10,2013-03-07 12:06:00,
2013-03-07 13:22:00,48.0,42.0,29.68,North,8,0.0,-999.0,79,-99.99,,,0.00,243,weatherlink.com 1.10,2013-03-07 12:22:00,
2013-03-07 13:36:00,48.6,42.0,29.68,NE,40,0.0,-999.0,78,-99.99,,,0.00,237,weatherlink.com 1.10,2013-03-07 12:36:00,
2013-03-07 13:51:00,48.5,42.0,29.68,NE,40,0.0,-999.0,78,-99.99,,,0.00,221,weatherlink.com 1.10,2013-03-07 12:51:00,
2013-03-07 14:06:00,49.0,42.0,29.69,NE,40,0.0,-999.0,77,-99.99,,,0.00,225,weatherlink.com 1.10,2013-03-07 13:06:00,
2013-03-07 14:21:00,49.2,42.0,29.68,NE,40,0.0,-999.0,77,-99.99,,,0.00,181,weatherlink.com 1.10,2013-03-07 13:21:00,
2013-03-07 14:36:00,49.5,43.0,29.68,ENE,60,2.0,-999.0,77,-99.99,,,0.00,139,weatherlink.com 1.10,2013-03-07 13:36:00,
2013-03-07 14:51:00,49.3,42.0,29.68,NNW,334,0.0,-999.0,77,-99.99,,,0.00,116,weatherlink.com 1.10,2013-03-07 13:51:00,
2013-03-07 15:06:00,49.4,43.0,29.68,NNW,341,0.0,-999.0,78,-99.99,,,0.00,111,weatherlink.com 1.10,2013-03-07 14:06:00,
2013-03-07 15:21:00,49.4,43.0,29.68,NNW,342,0.0,-999.0,78,-99.99,,,0.00,90,weatherlink.com 1.10,2013-03-07 14:21:00,
2013-03-07 15:36:00,49.3,43.0,29.68,NNW,342,0.0,-999.0,78,-99.99,,,0.00,60,weatherlink.com 1.10,2013-03-07 14:36:00,
2013-03-07 15:51:00,49.1,43.0,29.68,NNW,342,0.0,-999.0,79,-99.99,,,0.00,51,weatherlink.com 1.10,2013-03-07 14:51:00,
2013-03-07 16:06:00,49.0,43.0,29.68,NNW,342,0.0,-999.0,80,-99.99,,,0.00,49,weatherlink.com 1.10,2013-03-07 15:06:00,
2013-03-07 16:21:00,49.2,43.0,29.69,North,353,0.0,-999.0,80,-99.99,,,0.00,97,weatherlink.com 1.10,2013-03-07 15:21:00,
2013-03-07 16:36:00,49.8,44.0,29.68,ENE,65,0.0,-999.0,79,-99.99,,,0.00,88,weatherlink.com 1.10,2013-03-07 15:36:00,
2013-03-07 16:51:00,49.7,43.0,29.69,ENE,64,0.0,-999.0,79,-99.99,,,0.00,54,weatherlink.com 1.10,2013-03-07 15:51:00,
2013-03-07 17:06:00,49.5,44.0,29.69,ENE,64,0.0,-999.0,80,-99.99,,,0.00,30,weatherlink.com 1.10,2013-03-07 16:06:00,
2013-03-07 17:21:00,49.2,43.0,29.69,ENE,64,0.0,-999.0,80,-99.99,,,0.00,18,weatherlink.com 1.10,2013-03-07 16:21:00,
2013-03-07 17:36:00,48.7,43.0,29.70,ENE,64,0.0,-999.0,81,-99.99,,,0.00,9,weatherlink.com 1.10,2013-03-07 16:36:00,
2013-03-07 17:51:00,48.2,43.0,29.70,ENE,64,0.0,-999.0,83,-99.99,,,0.00,5,weatherlink.com 1.10,2013-03-07 16:51:00,
2013-03-07 18:06:00,47.8,43.0,29.71,ENE,64,0.0,-999.0,83,-99.99,,,0.00,0,weatherlink.com 1.10,2013-03-07 17:06:00,
2013-03-07 18:21:00,47.8,43.0,29.71,ENE,64,0.0,-999.0,84,-99.99,,,0.00,0,weatherlink.com 1.10,2013-03-07 17:21:00,
2013-03-07 18:36:00,47.3,43.0,29.71,ENE,64,0.0,-999.0,85,-99.99,,,0.00,0,weatherlink.com 1.10,2013-03-07 17:36:00,
2013-03-07 18:51:00,46.9,43.0,29.72,ENE,64,0.0,-999.0,86,-99.99,,,0.00,0,weatherlink.com 1.10,2013-03-07 17:51:00,
2013-03-07 19:06:00,46.9,43.0,29.72,ENE,64,0.0,-999.0,86,-99.99,,,0.00,0,weatherlink.com 1.10,2013-03-07 18:06:00,
2013-03-07 19:21:00,46.8,43.0,29.72,ENE,64,0.0,-999.0,86,-99.99,,,0.00,0,weatherlink.com 1.10,2013-03-07 18:21:00,
2013-03-07 19:36:00,46.5,43.0,29.72,ENE,64,0.0,-999.0,86,-99.99,,,0.00,0,weatherlink.com 1.10,2013-03-07 18:36:00,
2013-03-07 19:51:00,46.1,43.0,29.72,ENE,64,0.0,-999.0,87,-99.99,,,0.00,0,weatherlink.com 1.10,2013-03-07 18:51:00,
2013-03-07 20:06:00,45.9,43.0,29.73,ENE,64,0.0,-999.0,88,-99.99,,,0.00,0,weatherlink.com 1.10,2013-03-07 19:06:00,
2013-03-07 20:21:00,45.9,43.0,29.72,ENE,64,0.0,-999.0,89,-99.99,,,0.00,0,weatherlink.com 1.10,2013-03-07 19:21:00,
2013-03-07 20:36:00,46.0,43.0,29.73,ENE,64,0.0,-999.0,89,-99.99,,,0.00,0,weatherlink.com 1.10,2013-03-07 19:36:00,
2013-03-07 21:06:00,46.2,44.0,29.72,ENE,64,0.0,-999.0,90,-99.99,,,0.00,0,weatherlink.com 1.10,2013-03-07 20:06:00,
2013-03-07 21:21:00,46.3,44.0,29.73,ENE,64,0.0,-999.0,90,-99.99,,,0.00,0,weatherlink.com 1.10,2013-03-07 20:21:00,
2013-03-07 21:36:00,46.3,44.0,29.73,ENE,64,0.0,-999.0,91,-99.99,,,0.00,0,weatherlink.com 1.10,2013-03-07 20:36:00,
2013-03-07 21:52:00,45.9,44.0,29.72,ENE,64,0.0,-999.0,91,-99.99,,,0.00,0,weatherlink.com 1.10,2013-03-07 20:52:00,
2013-03-07 22:06:00,45.8,44.0,29.72,ENE,64,0.0,-999.0,92,-99.99,,,0.00,0,weatherlink.com 1.10,2013-03-07 21:06:00,
2013-03-07 22:21:00,45.7,44.0,29.72,ENE,64,0.0,-999.0,92,-99.99,,,0.01,0,weatherlink.com 1.10,2013-03-07 21:21:00,
2013-03-07 22:36:00,45.6,44.0,29.73,ENE,64,0.0,-999.0,93,-99.99,,,0.01,0,weatherlink.com 1.10,2013-03-07 21:36:00,
2013-03-07 22:51:00,45.6,44.0,29.73,ENE,64,0.0,-999.0,93,-99.99,,,0.01,0,weatherlink.com 1.10,2013-03-07 21:51:00,
2013-03-07 23:06:00,45.2,43.0,29.73,ENE,64,0.0,-999.0,93,-99.99,,,0.01,0,weatherlink.com 1.10,2013-03-07 22:06:00,
2013-03-07 23:21:00,45.2,43.0,29.73,ENE,64,0.0,-999.0,93,-99.99,,,0.01,0,weatherlink.com 1.10,2013-03-07 22:21:00,
2013-03-07 23:36:00,45.0,43.0,29.73,ENE,64,0.0,-999.0,93,-99.99,,,0.01,0,weatherlink.com 1.10,2013-03-07 22:36:00,
2013-03-07 23:51:00,45.1,44.0,29.73,ENE,64,0.0,-999.0,94,-99.99,,,0.01,0,weatherlink.com 1.10,2013-03-07 22:51:00,